Dewpoint
54 61 59 59 60 59 58 57 55 52 53 54 56 59 61 61 59 60 59 52 50 49 50 52 55 56 56 58 58 58 59 58 57 57 56 57 58 57
53 58 60 60 60 60 60 58 58 55 52 55 55 57 59 60 59 60 58 53 49 48 48 50 52 54 54 55 56 56 57 57 56 56 56 56 57 56
51 54 59 60 60 60 60 59 58 58 55 55 55 55 59 59 59 60 59 58 54 48 48 48 49 50 51 52 53 54 55 55 54 54 55 55 56 56
49 51 55 60 59 60 60 59 59 58 57 55 53 54 54 58 58 57 58 59 58 49 47 47 47 48 48 49 49 50 52 52 52 53 53 54 55 55
50 51 53 58 59 59 59 59 59 58 57 56 54 53 54 56 56 57 57 57 55 49 46 45 46 47 47 47 47 49 49 50 50 50 49 50 51 52
51 52 53 57 58 58 58 59 59 58 58 57 55 53 54 55 55 54 52 52 50 47 44 43 45 45 45 45 45 46 47 49 49 49 48 47 47 48
51 49 47 47 49 56 58 59 58 57 57 56 55 53 52 54 55 54 54 48 44 45 43 38 40 40 40 41 44 45 45 46 48 49 48 46 46 47
40 39 39 39 42 43 42 43 50 56 55 55 54 54 54 54 55 54 48 46 46 41 40 35 37 34 36 37 39 40 42 44 46 47 48 47 47 46
33 34 34 34 38 40 38 36 35 35 37 50 54 53 51 48 49 48 47 47 45 37 38 32 33 31 33 35 37 39 41 42 44 44 45 45 45 44
31 31 32 33 33 33 32 31 30 33 32 32 33 32 32 34 39 45 45 34 34 33 35 33 31 29 32 33 36 37 38 40 42 43 43 43 43 43
30 31 30 30 32 34 31 29 29 28 30 31 31 31 32 33 35 38 35 38 33 32 33 32 29 28 29 29 32 35 36 37 38 39 39 39 38 36
27 29 31 31 32 31 29 29 27 27 28 29 29 29 29 29 31 31 34 36 33 32 33 30 28 29 25 29 30 31 32 34 35 35 35 35 35 33
24 26 28 31 31 31 30 28 27 28 28 28 28 28 28 27 28 28 28 30 33 32 32 32 29 28 27 25 26 27 28 29 30 31 32 32 33 31
23 24 26 28 28 28 27 29 29 27 27 26 25 25 25 25 27 28 28 28 28 30 32 32 29 28 25 24 23 25 26 26 27 28 30 31 31 30
21 21 22 22 23 23 25 25 25 25 25 24 24 24 25 26 27 27 28 28 28 27 29 31 29 28 28 25 23 23 23 25 26 25 26 27 27 28
18 18 18 19 18 19 20 21 22 22 22 22 24 25 26 26 25 25 25 25 24 24 27 28 29 29 26 25 24 23 24 21 25 25 25 25 27 27
16 15 15 15 15 15 16 17 18 19 19 20 20 21 22 23 24 25 24 24 22 22 23 25 27 27 27 27 24 24 23 23 25 25 25 24 25 27
13 12 12 12 13 12 13 13 14 15 16 16 17 17 18 19 19 22 23 23 21 21 22 24 25 25 25 24 27 24 24 23 24 25 24 22 22 26
9 9 10 10 12 11 11 11 11 11 12 13 12 13 15 17 17 17 19 19 17 15 15 20 23 24 20 16 21 27 22 23 23 22 23 22 22 24
8 7 7 8 9 9 9 8 8 8 8 9 9 10 10 13 13 14 15 16 14 11 10 12 15 19 19 17 16 18 27 23 21 20 20 21 23 26
7 6 7 6 7 7 4 2 2 2 2 4 5 7 7 10 9 11 11 10 11 8 6 6 7 16 14 16 13 13 16 22 23 20 19 17 17 18
4 5 4 3 2 4 -1 -5 -2 -2 -1 1 1 2 3 7 7 7 9 10 11 11 9 11 11 13 17 13 9 9 11 11 15 15 14 14 13 11
-5 0 -3 -5 -4 -4 1 -6 -7 -9 -6 -5 -4 -1 -1 3 6 5 6 8 9 9 10 9 9 11 13 12 10 10 8 9 13 13 14 14 15 15
Lifted_Index
3 0 -2 -2 -2 -1 -1 -1 -1 -1 -1 -1 -1 -1 -1 -1 -1 -0 -1 -1 -1 -0 1 1 1 1 1 2 2 2 3 3 4 5 6 5 5 5
4 1 -1 -2 -2 -2 -2 -2 -2 -1 -1 -1 -1 -1 -1 -1 -1 -1 -1 -1 -1 -0 0 1 1 1 1 1 2 2 2 3 4 5 6 6 5 5
4 3 0 -2 -2 -2 -2 -2 -2 -2 -2 -2 -2 -1 -1 -1 -1 -1 -0 -0 -1 -1 -0 -0 0 1 1 1 1 2 2 2 3 4 5 6 6 6
4 3 1 -1 -2 -3 -3 -2 -2 -2 -2 -2 -1 -1 -1 -1 -1 -1 -0 -0 -0 -1 -0 -0 0 1 1 1 1 1 1 2 2 3 4 6 6 6
4 3 2 -0 -2 -2 -2 -2 -2 -2 -2 -2 -2 -1 -1 -1 -1 -1 -0 0 0 0 0 0 1 1 1 1 1 1 1 1 2 2 4 5 6 6
3 3 2 0 -2 -3 -3 -3 -2 -2 -2 -2 -2 -1 -1 -1 -1 -0 -0 0 1 1 1 1 1 2 2 2 2 2 1 1 2 3 4 5 6 6
3 3 2 1 -1 -3 -3 -3 -2 -2 -2 -2 -2 -1 -1 -0 -0 -0 0 1 1 1 1 1 2 2 2 2 2 2 2 2 2 3 4 5 5 5
3 3 2 0 -1 -2 -3 -3 -2 -2 -2 -2 -2 -1 -0 0 0 0 0 0 1 1 1 1 2 2 3 2 2 2 2 2 2 2 3 4 4 5
2 2 1 -0 -1 -2 -2 -2 -2 -2 -1 -1 -1 -1 0 0 0 0 0 0 1 1 1 2 2 3 3 3 2 2 2 2 2 2 3 3 3 4
3 3 2 1 0 -1 -1 -2 -2 -2 -1 -1 -1 -0 0 1 0 1 1 1 1 1 2 2 3 3 3 3 3 2 2 3 3 3 2 2 3 3
7 7 6 5 3 2 2 1 -0 -1 -1 -1 -1 -0 0 1 0 1 1 1 1 2 2 2 3 3 4 4 4 3 3 3 3 3 3 3 3 3
10 10 10 10 8 7 6 5 4 3 2 2 2 2 2 2 2 2 2 2 2 2 2 2 3 4 4 4 4 5 5 5 5 5 5 5 4 4
12 13 13 13 12 11 10 10 9 8 7 6 6 6 6 5 5 5 5 4 4 4 4 4 4 4 4 4 5 6 7 7 7 8 8 8 7 7
15 15 15 15 14 13 12 12 12 11 10 9 9 9 9 9 9 10 10 9 8 8 7 7 6 5 5 4 5 6 7 9 11 11 11 11 11 11
18 18 17 17 16 15 14 14 13 13 12 11 10 11 12 12 12 12 12 12 12 11 12 11 10 8 7 6 6 7 8 10 12 14 14 14 14 14
20 20 19 18 18 17 16 16 16 15 14 13 12 13 14 14 14 14 13 13 12 12 13 14 14 13 11 10 9 9 10 11 13 15 16 17 17 17
20 20 19 18 18 18 18 18 18 18 17 16 16 15 15 15 15 15 14 13 12 12 13 14 15 15 15 14 14 13 13 14 15 17 17 17 18 19
19 18 18 18 18 18 19 19 20 20 20 20 19 18 18 18 17 16 16 15 14 13 13 14 15 15 15 15 16 17 16 16 17 18 18 18 19 20
18 18 18 19 19 19 20 20 20 21 21 21 21 20 20 20 19 19 18 17 16 15 15 15 15 14 13 14 17 19 19 19 19 19 20 20 20 21
20 20 20 21 21 21 21 21 22 22 22 22 22 21 21 21 20 20 20 19 19 18 17 17 17 16 15 15 16 19 21 21 21 20 20 21 22 22
23 23 23 23 24 24 24 24 24 23 23 23 23 23 22 22 21 21 21 20 20 20 19 19 19 19 19 17 17 18 21 22 23 22 22 22 21 21
26 26 26 26 26 26 26 26 26 25 25 25 24 24 24 23 23 23 22 22 21 21 21 21 21 21 20 19 18 18 20 21 22 23 23 23 21 20
28 28 28 28 28 28 28 27 27 26 26 26 26 25 25 24 24 24 23 23 22 22 22 22 22 22 21 20 19 19 19 20 21 23 24 24 23 23